Showing default

CHUANG XIN 16B (CX-16B), 53876

Orbit data source: Space-Track

CHUANG XIN 16B (CX-16B), 53876 is a payload satellite owned by IMI/CAS (CN) in LEO that was launched on Tue, 23 Aug 2022 UTC via a KUAIZHOU-1A launch vehicle from the Xichang Space Center, China (XSC). Payload-class satellites include a variety of spacecraft equipped with specific instruments for various scientific and technological missions. These include communications satellites like Starlink; space stations such as the ISS; scientific satellites like the Hubble; Earth observation satellites from companies like Planet Labs, Umbra, and HawkEye 360; GPS; miniature CubeSats for education and research; and military/defense satellites.

Not visible in the next 10 days
Identifier
53876, 2022-102B
Orbit
LEO
Country
Flag of CNCN / PRC
Related business
Manufacturer
IMI/CAS
Mission
Operational Civil Technology
Bus & Motor
CX16, Unknown motor
Mass
100 kg wet, ~100 kg dry
Launch date (UTC)
2022-08-23 (4 years ago)
Launch vehicle
KUAIZHOU-1A
Launch site
Xichang Space Center, China (XSC)
Object type
Payload
Rocket body
Debris
Shape & HBR
Box + 1 Pan, 1.0 m
Radar Cross Section
0.763 m², Medium (>0.1 m² and < 1m²)

Expand to show TLE details & history
Last TLE update: 1 day ago

TLE from 1 day ago
0 CHUANG XIN 16B (CX-16B)
1 53876U 22102B   26172.34970361  .00038972  00000-0  77541-3 0  9993
2 53876  28.9894 162.6612 0000523 249.9301 110.1253 15.45574826207350
Epoch: 2026-06-21T08:23Z
TLE epoch observation values (Epoch: 2026-06-21T08:23:34.391Z)
Latitude
-0°
Longitude
127.21666°
Altitude
428.103 km
Speed
7.657 km/s
True Right ascension
10h 50m 38s
True Declination
0° 00' 00"
Sunlit
Object was in daylight at epoch
Visualization orbit readout
Latitude
Unknown
Longitude
Unknown
Altitude
Unknown
Speed
Unknown
Apparent Right ascension
Unknown
Apparent Declination
Unknown
Sunlit
N/A
Visualization observer readout
Local Sidereal Time
21:38:00
Azimuth
Unknown
Elevation
Unknown
Doppler factor
Unknown
Orbital elements
Apogee altitude
434.242 km
Perigee altitude
433.529 km
Semi-major axis
6,812.023 km
Eccentricity
0.00005
Inclination
28.9894°
RAAN
162.6612°
Arg. of periapsis
249.9301°
True anomaly
110.13093°
Mean anomaly
110.1253°
Eccentric anomaly
110.12811°
Mean motion
3.86037 °/min
Orbital period
93.26 mins
BSTAR
0.00077541
Loading maneuver chart data...
Computing Atmospheric mass density...
Loading historical data...
Loading historical data...
Loading historical data...
Loading historical data...
Loading historical data...
Loading historical data...
Loading historical data...
Other satellites on launch #102 in the year 2022 (2022-08-23 UTC)

Documentation

Showing up to 5 results
|